1st Responders/1st Detectors/Storm Spotters Weather Summary for Whitley County, KY

Forecast Maps


Reg. NEXRAD Animation


National Fire Danger: Day 1 & 2 Map

Current NWS Watch/Warnings

SPC Convective Day 1 Outlook


Day 2 Outlook

(Click images to enlarge|Page will refresh every 5 minutes)
UK Ag. Weather Center Desktop Severe Weather Service[HERE]
Whitley County, KY Hazardous Weather Outlook Webcast
(9 AM to 9 PM Mon-Fri)
[Fast]
[Dial-up]


UKAWC 1st Detectors/1st Responders Precision Weather Forecast For WHITLEY County, Kentucky
(based on the NWS County Digital Forecast)

ISSUED AT 17:00 UTC ON FRIDAY MAR 22 2019
DAY FRIDAY
EDT 3HR 2P 3P 4P 5P 6P 7P
MAX/MIN -- -- -- -- -- 56°
TEMP 54° 56° 56° 56° 52° 49°
SKY COVER 38% 47% 49% 51% 44% 38%
Clouds
DEW PT 34° 32° 31° 31° 31° 31°
RH 44% 41% 39% 38% 42% 47%
POP 12HR -- -- -- -- -- --
RAIN/SNOW (liq.equ) 0.00in -- -- -- -- --
SNOWFALL 0in -- -- -- -- --
WIND SPEED(MPH) 14 15 15 15 14 10
WIND Gust(MPH) 25 29 29 26 23 16
WIND DIR W W NW NW NW NW
DEW -- -- -- -- -- --
HeatIndex 54 56 56 56 52 49
Rain Showers -- -- -- -- -- --
Thunder Storm -- -- -- -- -- --
Frost -- -- -- -- -- --
WIND CHILL -- -- -- -- -- --
SPRAY COND
DRY COND
LIVESTOCK COLDSTRESS



DAY SATURDAY SUNDAY MONDAY TUESDAY WEDNESDAY THURSDAY
EDT 6HR 8P 9P 10P 11P MIDN 1A 2A 3A 4A 5A 6A 7A 8A 9A 10A 11A NOON 1P 2P 3P 4P 5P 6P 7P 8P 9P 10P 11P MIDN 1A 2A 5A 8A 11A 2P 5P 8P 2A 8A 2P 8P 2A 8A 2P 8P 2A 8A 2P 8P 2A 8A 2P 8P
MAX/MIN -- -- -- -- -- -- -- -- -- -- -- -- 27° -- -- -- -- -- -- -- -- -- -- 56° -- -- -- -- -- -- -- -- 32° -- -- 65° -- -- 47° 61° -- -- 36° 52° -- -- 27° 61° -- -- 36° 70° --
TEMP 47° 43° 41° 40° 38° 36° 36° 34° 32° 31° 31° 29° 29° 34° 38° 40° 45° 47° 52° 54° 54° 56° 54° 50° 47° 45° 43° 40° 38° 36° 34° 34° 34° 52° 61° 61° 54° 47° 47° 59° 54° 40° 36° 47° 43° 29° 27° 61° 52° 40° 40° 68° 61°
SKY COVER 32% 28% 23% 19% 16% 13% 10% 8% 5% 2% 3% 3% 3% 2% 2% 1% 1% 1% 1% 1% 1% 1% 2% 2% 7% 8% 11% 12% 14% 19% 22% 55% 64% 46% 70% 77% 87% 75% 91% 93% 92% 74% 57% 23% 18% 13% 9% 10% 7% 8% 23% 21% 40%
Clouds
DEW PT 31° 29° 29° 29° 29° 29° 27° 27° 27° 25° 25° 25° 25° 25° 25° 25° 25° 23° 22° 22° 22° 22° 22° 22° 23° 23° 23° 23° 25° 25° 25° 25° 27° 31° 34° 38° 40° 45° 45° 52° 45° 36° 29° 25° 25° 25° 25° 25° 31° 34° 34° 31° 32°
RH 53% 57% 61% 64% 66% 72% 72% 78% 78% 78% 81% 85% 81% 71% 61% 55% 45% 38% 31% 29% 27% 26% 29% 33% 38% 41% 44% 49% 56% 63% 69% 69% 71% 44% 37% 40% 57% 89% 89% 74% 71% 85% 72% 42% 51% 85% 96% 24% 44% 79% 78% 23% 34%
POP 12HR 5% -- -- -- -- -- -- -- -- -- -- -- 2% -- -- -- -- -- -- -- -- -- -- -- 0% -- -- -- -- -- -- -- 0% -- -- -- 25% -- 74% -- 99% -- 39% -- 6% -- 0% -- 0% -- 0% -- 2%
RAIN/SNOW (liq.equ) 0.00in -- -- -- -- -- 0.00in -- -- -- -- -- 0.00in -- -- -- -- -- 0.00in -- -- -- -- -- 0.00in -- -- -- -- -- 0.00in -- 0.00in -- 0.00in -- 0.00in 0.00in 0.06in -- -- -- -- -- -- -- -- -- -- -- -- -- --
SNOWFALL 0in -- -- -- -- -- 0in -- -- -- -- -- 0in -- -- -- -- -- 0in -- -- -- -- -- 0in -- -- -- -- -- 0in -- 0in -- 0in -- 0in 0in 0in -- -- -- -- -- -- -- -- -- -- -- -- -- --
WIND SPEED(MPH) 8 7 7 5 2 5 1 1 2 0 0 1 1 1 1 1 2 2 2 5 5 5 1 1 1 1 1 1 1 1 1 1 1 5 7 7 5 6 6 7 7 8 7 7 6 5 2 2 2 2 2 7 6
WIND DIR NW NW NW N N N N N NW NW NW N N N N N N N N N N N N NE NE NE E E E E E SE SE S SW SW SW S S W N N NE NE NE NE NE SW NW S S S S
HeatIndex 47 39 37 36 36 33 36 34 29 31 31 29 29 34 38 40 43 47 52 54 54 56 54 50 47 45 43 40 38 36 34 34 34 52 61 61 54 47 47 59 54 35 30 47 39 23 23 61 52 38 37 68 61
Rain Showers -- -- -- -- -- -- -- -- -- -- -- -- -- -- -- -- -- -- -- -- -- -- -- -- -- -- -- -- -- -- -- -- -- -- -- Chance Slight Chance -- Definite Likely Chance -- -- -- -- -- -- -- -- -- -- -- --
Thunder Storm -- -- -- -- -- -- -- -- -- -- -- -- -- -- -- -- -- -- -- -- -- -- -- -- -- -- -- -- -- -- -- -- -- -- -- -- -- -- -- Slight Chance -- -- -- -- -- -- -- -- -- -- -- -- --
Frost -- -- -- -- -- -- Areas of Widespread Widespread Widespread Widespread Widespread Widespread Widespread -- -- -- -- -- -- -- -- -- -- -- -- -- -- -- -- Areas of Areas of Areas of -- -- -- -- -- -- -- -- -- -- -- -- -- Widespread -- -- -- -- -- --
WIND CHILL -- 39° 36° 37° -- 32° -- -- -- -- -- -- -- -- -- -- -- -- -- -- -- -- -- -- -- -- -- -- -- -- -- -- -- -- -- -- -- -- -- -- -- 35° 30° -- 39° 24° -- -- -- -- -- -- --
SPRAY COND
DRY COND
LIVESTOCK COLDSTRESS

Click on individual weather variable above in left-hand column (ie., TEMP, RH, QPF 12HR) to view state forecast maps






NWS 48 Hr. Forecast Maps,

Regional Hourly Observations For WHITLEY County, Kentucky
Issued at 100 PM EDT FRI MAR 22 2019
...EASTERN KENTUCKY...
  
CITY           SKY/WX    TMP DP  RH WIND       PRES   REMARKS
JACKSON        PTSUNNY   52  32  46 NW12G23   29.92F                  
LONDON           N/A     54  35  48 W20G30    29.97F                  
SOMERSET*        N/A     54  32  43 W13G24    30.02F                  
MONTICELLO*      N/A     56  35  45 W18G29    30.04F                  
WILLIAMSBURG*    N/A     55  32  41 W10G18    29.99F                  
MIDDLESBORO*     N/A     55  34  43 NW8       29.99F                  
HARLAN APT*      N/A     51  32  49 SW9G23    29.96F                  
PIKE CO APT*   CLOUDY    47  34  61 SW12G20   29.90F                  
BIG SANDY APT* CLOUDY    50  36  58 W9G17     29.90F                  
MOREHEAD APT*    N/A     52  34  50 W10G22    29.94S                  
ASHLAND*       CLOUDY    47  36  65 NW12G20   29.90R                  


Current NOWCAST not available:
Nowcasts are not issued routinely during fair weather. Only when
precipitation or other significant weather is occuring in this county will these
forecasts be issued. Currently, there is no short term forecast in effect.


Fire Weather Forecast For WHITLEY County, KY
Provided by the National Weather Service:

Issued at: Fri Mar 22 13:05:01 EDT 2019

555 AM EDT Fri Mar 22 2019

                      Today        Tonight      Sat          

Cloud Cover           PCldy        MClear       Clear        
Chance precip (%)     0            0            0            
Precip type           None         None         None         
Temp (24H TREND)      50-55 (+5)   23-31 (-3)   53-56        
Rh % (24H TREND)      40-45 (-8)   75-96 (+6)   20-25        
20ftwnd-AM(mph)       W 6-10 G25                Lgt/Var      
20ftwnd-PM(mph)       NW 9-13 G30  NW 3-7 G14   Lgt/Var      
Precip duration                                              
Precip begin                                                 
Precip end                                                   
Precip amount         0.00         0.00         0.00         
LAL                   1            1            1            
Haines Index (MID)    2                         4            
Mixing hgt(ft-AGL)    6000                      3500         
Transport wnd (mph)   NW 28                     NW  2        
Vent rate (kt-ft)     145739                    5719         
ADI Early             82 Good      13 Gen Poor  12 Poor      
ADI Late              95 Good      5 Very Poor  13 Gen Poor  
Max LVORI Early       4            3            5            
Max LVORI Late        2            5            2            

REMARKS...RANGES OF MIN T EXCEEDING 8 DEGREES & RANGES OF MAX RH        
EXCEEDING 10% INDICATE THE LIKELIHOOD OF THERMAL BELTS. ADI IS        
ATMOSPHERIC DISPERSION INDEX BY LAVDAS. DISPERSION INDEX IS        
MAGNITUDE OF VENT RATE DIVIDED BY 1000.

SPC's Fire Weather Web Tool (Excellent!), SPC's Fire Weather Outlooks, NWS Fire Weather WEB, Fire Danger Class Map,
Keetch-Byram Drought Index, ROMAN Web, Haines Index ,
WFAS's 10-hr Dead Fuel Moist., WFAS's 100-hr Dead Fuel Moist., Probablity of Ignition, Visual blackness Map, Palmer Drought Index, HPC's Rainfall Forecast Maps


Hazardous Weather Outlook For WHITLEY County, Kentucky
400 AM EDT Fri Mar 22 2019

 DAY ONE  Today and Tonight.

No hazardous weather is expected at this time.

 DAYS TWO THROUGH SEVEN  Saturday through Thursday.

Freezing temperatures and frost are expected Friday night,
Saturday night, Tuesday night, and Wednesday night.

Thunderstorms will be possible during the day Monday, mainly 
across the Cumberland Valley.

 SPOTTER INFORMATION STATEMENT  

Spotter activation is not anticipated.

Latest WHITLEY County, Kentucky Watches, Warnings and Advisories.
Additional Drought Info.: UKAWC Drought Page, Kentucky Drought Watch


7-Day Forecast For WHITLEY County, KY

THIS AFTERNOON
Sunny. Highs in the upper 50s. Northwest winds around 10 mph. Gusts up to 25 mph.

TONIGHT
Mostly clear. Widespread frost late. Lows in the upper 20s. Light winds.

SATURDAY
Sunny. Widespread frost early. Highs in the mid 50s. Light winds.

SATURDAY NIGHT
Partly cloudy. Widespread frost late. Lows in the mid 30s. Light winds.

SUNDAY
Areas of frost in the morning. Mostly sunny in the morning, then mostly cloudy with a 20 percent chance of rain showers in the afternoon. Highs in the mid 60s. Light winds.

SUNDAY NIGHT
Mostly cloudy with showers likely. Lows in the upper 40s. Chance of rain 70 percent.

MONDAY
Showers and a chance of thunderstorms. Highs around 60. Chance of rain near 100 percent.

MONDAY NIGHT
Mostly cloudy with a 40 percent chance of rain showers. Lows in the upper 30s.

TUESDAY
Sunny. Highs in the lower 50s.

TUESDAY NIGHT
Mostly clear. Widespread frost. Lows in the upper 20s.

WEDNESDAY
Sunny. Widespread frost. Highs in the lower 60s.

WEDNESDAY NIGHT
Mostly clear. Patchy frost. Lows in the mid 30s.

THURSDAY
Sunny. Highs in the lower 70s.

Ag Weather Center, Department of Biosystems & Agricultural Engineering, University of Kentucky